User: anonymous   Login
Location: NJAA Observatory
(40.6819°N, 74.8979°W)
Time: 02:42:58
(UTC-05:00)
Language:

Cosmos 1461 - Orbit

View from above orbital plane
View from above orbital plane
View from above satellite
View from above satellite

Ground track
Ground track

The orbit data is extracted from the following two-line orbital elements,

1 14064U 83044A   17056.03119201  .00000767  00000-0  82978-4 0  9998
2 14064  65.0006 271.7729 0084563  89.5594 271.5211 14.93466346706609
Epoch (UTC): 25 February 2017 00:44:54
Eccentricity: 0.0084563
inclination: 65.0006°
perigee height: 528 km
apogee height: 646 km
right ascension of ascending node: 271.7729°
argument of perigee: 89.5594°
revolutions per day: 14.93466346
mean anomaly at epoch: 271.5211°
orbit number at epoch: 70660

The dashed part of the orbit path shows where the satellite is in the earth's shadow,  

DLR